Regional Weather Roundup
Issued by NWS

Home | Current Version | Previous Version | Text Only | Print | Product List | Glossary On
Versions: 1 2 3 4 5 6 7 8 9 10 11 12 13 14 15 16 17 18 19 20 21 22 23 24 25 26 27 28 29 30 31 32 33 34 35 36 37 38 39 40 41 42 43 44 45 46 47 48 49 50
000
ASUS45 KTFX 070419
RWRMT
MONTANA HOURLY WEATHER ROUNDUP
NATIONAL WEATHER SERVICE GREAT FALLS MT
919 PM MST FRI MAR 6 2015

NOTE: "FAIR" INDICATES FEW OR NO CLOUDS BELOW 12000 FEET WITH NO
SIGNIFICANT WEATHER AND/OR OBSTRUCTIONS TO VISIBILITY.

* THESE STATIONS ARE NOT UNDER NWS QUALITY CONTROL. THEY DO NOT
   REPORT WEATHER SUCH AS PRECIPITATION OR FOG.

MTZ001>007-043-070500-
WEST OF THE DIVIDE
CITY           SKY/WX    TMP DP  RH WIND       PRES   REMARKS
KALISPELL      PTCLDY    30  27  89 CALM      30.26S
MISSOULA       PTCLDY    46  23  40 N6        30.29S
BUTTE          PTCLDY    36  21  54 SE5       30.32R WCI  32
MULLAN PASS    CLOUDY    37  19  48 W3        30.32S
* ESSEX        N/A       31  25  78 VRB1       N/A
* EUREKA APT   PTCLDY    45  23  42 S5        30.26R
* HAMILTON APT PTCLDY    45  21  38 S8        30.30S
* LIBBY APT    PTCLDY    43  25  49 SE7       30.28S
* LINCOLN      N/A       43  20  40 E2G13      N/A
* LOOKOUT PASS N/A       37  27  67 NE2        N/A
* POLSON       N/A       44  22  42 SE1        N/A
* RONAN APT    MOCLDY    43  28  56 N/A        N/A
* SEELEY LAKE  N/A       30  21  69 NE1        N/A
* THOMP F APT  PTCLDY    36  17  46 N5         N/A   WCI  32
$$

MTZ008-052>055-070500-
SOUTHWEST MONTANA
CITY           SKY/WX    TMP DP  RH WIND       PRES   REMARKS
BOZEMAN        CLOUDY    37  25  62 CALM      30.30R
DILLON         PTCLDY    41  16  36 S12       30.31R
* W YELLOWSTON PTCLDY    29  18  63 N/A        N/A
* THREE FORKS  CLOUDY    45  18  34 N/A        N/A
* BOULDER HILL N/A       41  13  32 SW1G6      N/A
* MONIDA PASS  N/A       32  18  56 W1         N/A
* RAYNOLDS PAS N/A       29  11  47 SE17       N/A   WCI  17
* WHITEHALL    N/A       47  15  28 NW7G12     N/A
* WISE RIVER   N/A       34  15  46 SW5G10     N/A   WCI  29
$$

MTZ009>010-012-014-046-048-049-054-070500-
EAST SLOPES AND CENTRAL MONTANA
CITY           SKY/WX    TMP DP  RH WIND       PRES   REMARKS
CUT BANK       MOCLDY    37  23  57 W14       30.18R WCI  28
GREAT FALLS    MOCLDY    39  23  53 SW9       30.20R WCI  33
HELENA         MOCLDY    52  18  26 W6        30.26R
MALMSTROM AFB  MOCLDY    37  21  52 SW5       30.20R WCI  33
* CONRAD       MOCLDY    36  23  59 SW5        N/A   WCI  32
* DEARBORN     N/A       43  27  53 S3         N/A
* EAST GLACIER N/A       42  22  45 NW14       N/A
* MONARCH      N/A       35  18  50 N/A        N/A
* PENDROY      N/A       38  20  48 W4         N/A
* ROGERS PASS  N/A       41  18  39 N2         N/A
* SWEET GRASS  N/A       35  21  57 E8         N/A   WCI  28
* WHITE SULPH  N/A       39  18  43 W1G6       N/A
$$

MTZ011-013-016-021-035-040-045-047-050-051-070500-
NORTH CENTRAL MONTANA
CITY           SKY/WX    TMP DP  RH WIND       PRES   REMARKS
HAVRE          PTCLDY    30  21  69 CALM      30.21R
LEWISTOWN      MOCLDY    37  27  67 SW12      30.21R WCI  29
* N BAR RANCH  FAIR      37  19  48 W6        30.21R WCI  32
* CHINOOK      CLEAR     34  23  64 SW3       30.21R
* FORT BENTON  MOCLDY    45  19  35 N5        30.22R
* CHESTER      N/A       32  22  67 NE4        N/A
* DENTON       N/A       37  19  48 W7         N/A   WCI  32
* GEYSER       N/A       41  22  47 SW10       N/A
* JUDITH GAP   N/A       38  21  50 NW12       N/A   WCI  30
* LOMA         N/A       41  24  51 VRB11      N/A
$$

MTZ017>020-022>027-061-062-070500-
NORTHEAST MONTANA
CITY           SKY/WX    TMP DP  RH WIND       PRES   REMARKS
GLASGOW        CLOUDY    37  27  67 NW10      30.16R WCI  30
GLENDIVE       PTCLDY    37  23  57 NW15      30.14R WCI  28
JORDAN         PTCLDY    28  25  89 W6        30.17R WCI  21
SIDNEY         FAIR      37  28  70 W12       30.14R WCI  29
WOLF POINT     CLEAR     39  28  65 W7        30.14R WCI  34
* BEAVER HILL  N/A       38  24  57 W11        N/A   WCI  31
* CIRCLE       N/A       40  26  57 NW10       N/A   WCI  34
* LINDSAY DVD  N/A       35  24  64 NW12       N/A   WCI  27
* NAVAJO       N/A       34  30  85 NW18G26    N/A   WCI  23
* PLENTYWOOD A PTCLDY    36  30  79 NW17G26   30.08R WCI  26
* POPLAR APT   PTCLDY    37  28  70 W9        30.14R WCI  30
* SACO         N/A       38  26  62 W9         N/A   WCI  32
$$

MTZ028>042-056>058-070500-
SOUTHCENTRAL AND SOUTHEAST MONTANA
CITY           SKY/WX    TMP DP  RH WIND       PRES   REMARKS
BAKER          CLOUDY    39  27  62 W8        30.13R WCI  33
BILLINGS       MOCLDY    48  19  32 NW13      30.20R
LIVINGSTON     MOCLDY    45  18  34 W12       30.24R
MILES CITY     CLEAR    N/A N/A N/A N/A       30.16R
* BIG TIMBER A MOCLDY    48  19  32 SW15G23   30.23R
* FORSYTH APT  CLEAR     43  23  45 CALM      30.18R
* LAUREL APT   MOCLDY    46  18  33 W5         N/A
* ROUNDUP APT  PTCLDY    45  18  34 NW11G17    N/A
* ALZADA       N/A       38  24  57 NW3        N/A
* HYSHAM       N/A       46  16  30 NW3G9      N/A
* REED POINT   N/A       50  22  33 W6         N/A
$$

REGIONAL REPORTS...DAKOTAS
CITY           SKY/WX    TMP DP  RH WIND       PRES   REMARKS
WILLISTON      CLOUDY    37  30  76 NW24G29   30.08R WCI  26
DICKINSON      MOCLDY    39  25  57 NW14      30.02S WCI  31
BEACH          MOCLDY    37  25  62 NW17G22   30.10R WCI  27
CROSBY         CLOUDY    36  34  92 NW18G26   30.04R WCI  26
TIOGA          CLOUDY    36  36 100 NW26G35   30.06R WCI  24
WATFORD CITY   CLEAR     37  30  76 NW16      30.05R WCI  28
BISMARCK       PTCLDY    43  30  60 NW15      30.00R
GRAND FORKS    CLOUDY    34  27  76 S7        29.84F WCI  28
FARGO          MOCLDY    34  23  64 S14       29.89F WCI  24
BUFFALO SD     PTCLDY    39  23  53 N14       30.04R WCI  31
RAPID CITY     CLOUDY    41  23  49 W10       30.12R
$$

REGIONAL REPORTS...WYOMING/IDAHO/WASHINGTON
CITY           SKY/WX    TMP DP  RH WIND       PRES   REMARKS
GILLETTE       CLEAR     36  21  54 NW7       30.19R WCI  30
SHERIDAN       CLEAR     34  25  70 W8        30.20R WCI  27
CODY           PTCLDY    36  21  54 N7        30.25R WCI  30
YELLOWSTONE LA PTCLDY    21  12  68 CALM      30.40R
SALMON         PTCLDY    34  18  52 CALM      30.33R
MULLAN PASS    CLOUDY    37  19  48 W3        30.32S
SAND POINT     PTCLDY    37  30  76 CALM      30.31R
SPOKANE        MOCLDY    45  30  56 SW3       30.29F
$$

REGIONAL REPORTS...ALBERTA
CITY           SKY/WX    TMP DP  RH WIND       PRES   REMARKS
CALGARY        FAIR      36  19  50 VRB2      30.19R
LETHBRIDGE     PTCLDY    30  21  69 VRB2      30.20R
MEDICINE HAT   MOCLDY    30  27  89 SW3       30.21S
EDMONTON       PTCLDY    28  23  81 SW8       30.15S WCI  20
WATERTON GATE  N/A       45  23  42 SW10G17    N/A
CARDSTON       N/A       41  27  58 W6         N/A
MILK RIVER     N/A       36  23  59 E8         N/A   WCI  30
$$

REGIONAL REPORTS...SASKATCHEWAN
CITY           SKY/WX    TMP DP  RH WIND       PRES   REMARKS
SWIFT CURRENT  CLOUDY    34  30  85 W13G46    30.12R WCI  25
REGINA         N/A       30  28  92 NW14      30.06R WCI  19
VAL MARIE      N/A       32  28  85 NW9        N/A   WCI  24
ASSINIBOIA     N/A       34  28  79 NW16       N/A   WCI  24
CORONACH       N/A       34  30  85 NW23G29    N/A   WCI  22

$$



USA.gov is the U.S. government's official web portal to all federal, state and local government web resources and services.